Home   Weather   Norrköping   Past weeks

Flag for Sweden Past Weather in Norrköping, Sweden — Yesterday and Last 2 Weeks

Now
63 °F

Passing clouds.


Feels Like: 63 °F
Forecast: 57 / 67 °F
Wind: 13 mph from West

Location: Norrkoping Airport

Current Time: Aug 31, 2016 at 10:16:53 AM

Latest Report: Aug 31, 2016 at 9:20 AM


Visibility: N/A

Pressure: 30.07 "Hg

Humidity: 77%

Dew Point: 55 °F

Location of NorrköpingLocation

Past Weather in Norrköping — Graph

°F

Norrköping Temperature Yesterday

Maximum temperature yesterday: 68 °F (at 1:50 PM)
Minimum temperature yesterday: 46 °F (at 5:50 AM)
Average temperature yesterday: 59 °F

High & Low Weather Summary for the Past Weeks

 TemperatureHumidityPressure
High90 °F (Aug 26, 3:50 PM)100% (Aug 18, 5:20 PM)30.30 "Hg (Aug 18, 5:20 PM)
Low45 °F (Aug 28, 4:20 AM)26% (Aug 26, 4:20 PM)29.59 "Hg (Aug 29, 11:50 AM)
Average62 °F77%29.97 "Hg
* Reported Aug 16 8:20 AM — Aug 31 8:50 AM, Norrköping, Weather by CustomWeather, © 2016

Note: Actual official high and low records may vary slightly from our data, if they occured in-between our weather recording intervals... More about our weather records

Advertising

Norrköping Weather History for the Previous 24 Hours

Scroll right to see more
 ConditionsComfort  
Time TempWeatherWind HumidityBarometerVisibility
8:50 AM
Wed, Aug 31
63 °FPartly sunny.13 mph77%30.07 "HgN/A
8:20 AM61 °FPartly sunny.13 mph88%30.07 "HgN/A
7:50 AM61 °FPartly sunny.12 mph88%30.07 "HgN/A
7:20 AM61 °FPartly sunny.9 mph88%30.07 "HgN/A
6:50 AM59 °FPassing clouds.9 mph94%30.07 "HgN/A
6:20 AM59 °FPassing clouds.12 mph94%30.07 "HgN/A
5:50 AM57 °FPassing clouds.8 mph94%30.07 "HgN/A
5:20 AM57 °FCool.8 mph94%30.07 "HgN/A
4:50 AM57 °FPassing clouds.8 mph94%30.04 "HgN/A
4:20 AM59 °FPassing clouds.9 mph88%30.04 "HgN/A
3:50 AM59 °FPassing clouds.8 mph88%30.04 "HgN/A
3:20 AM57 °FPassing clouds.7 mph94%30.04 "HgN/A
2:50 AM57 °FPassing clouds.7 mph94%30.04 "HgN/A
2:20 AM57 °FCool.7 mph94%30.04 "HgN/A
1:50 AM57 °FCool.8 mph94%30.04 "HgN/A
1:20 AM59 °FCool.8 mph88%30.04 "HgN/A
12:50 AM59 °FPassing clouds.7 mph88%30.04 "HgN/A
12:20 AM59 °FCool.8 mph82%30.04 "HgN/A
11:50 PM
Tue, Aug 30
59 °FPassing clouds.8 mph82%30.04 "HgN/A
11:20 PM61 °FPassing clouds.8 mph77%30.04 "HgN/A
10:50 PM63 °FOvercast.10 mph73%30.04 "HgN/A
10:20 PM63 °FOvercast.9 mph73%30.04 "HgN/A
9:50 PM63 °FOvercast.12 mph73%30.01 "HgN/A
9:20 PM63 °FOvercast.14 mph73%30.01 "HgN/A
8:50 PM63 °FPartly sunny.13 mph73%30.01 "HgN/A
8:20 PM63 °FPartly sunny.16 mph68%30.01 "HgN/A
7:50 PM64 °FPartly sunny.17 mph64%30.01 "HgN/A
7:20 PM64 °FPartly sunny.15 mph64%30.01 "HgN/A
6:50 PM64 °FPartly sunny.14 mph60%29.98 "HgN/A
6:20 PM64 °FPartly sunny.16 mph60%29.98 "HgN/A
5:50 PM66 °FScattered clouds.17 mph56%29.98 "HgN/A
5:20 PM66 °FScattered clouds.17 mph52%29.98 "HgN/A
4:50 PM66 °FPassing clouds.20 mph52%30.01 "HgN/A
4:20 PM64 °FScattered clouds.20 mph56%30.01 "HgN/A
3:50 PM64 °FPassing clouds.20 mph56%30.01 "HgN/A
3:20 PM66 °FPassing clouds.18 mph52%30.01 "HgN/A
2:50 PM66 °FPassing clouds.17 mph52%30.01 "HgN/A
2:20 PM66 °FScattered clouds.15 mph56%30.01 "HgN/A
1:50 PM68 °FScattered clouds.14 mph56%30.01 "HgN/A
1:20 PM66 °FPassing clouds.15 mph60%30.01 "HgN/A
12:50 PM64 °FPassing clouds.13 mph60%30.01 "HgN/A
12:20 PM64 °FPassing clouds.14 mph60%30.01 "HgN/A
11:50 AM66 °FPassing clouds.12 mph56%30.01 "HgN/A
11:20 AM63 °FSunny.12 mph59%30.01 "Hg10 mi
10:50 AM63 °FSunny.13 mph59%30.01 "Hg10 mi
10:20 AM61 °FSunny.14 mph63%30.01 "Hg10 mi
Weather by CustomWeather, © 2016

See weather overviewHow to use our weather pages